Location: Marcé
(47.5801°N, 0.3280°W)
Time: 05:43:23
(UTC+01:00)

Envisat - Pass Details

Date: 21 October 2021
Orbit: 764 x 766 km, 98.2° (Epoch: 04 December)

Event Time Altitude Azimuth Distance (km) Brightness Sun altitude
Rises 19:26:56 0° 207° (SSW) 3,221 6.8 -4.9°
Reaches altitude 10° 19:29:52 10° 225° (SW) 2,301 6.4 -5.4°
Maximum altitude 19:33:26 19° 270° (W) 1,760 6.2 -6.0°
Drops below altitude 10° 19:37:02 10° 315° (NW) 2,313 6.0 -6.6°
Sets 19:40:02 0° 333° (NNW) 3,245 6.5 -7.1°
